Location: Natural Bridges National Monument
(37.6093°N, 109.9767°W)
Time: 02:04:50
(UTC-06:00)

Amateur Radio Satellites - All Passes

Search period start: 02 July 2015 01:34
Search period end: 03 July 2015 01:34
Location: Natural Bridges National Monument, 37.6093°N, 109.9767°W

Satellite Date Start Highest point End Downlink Frequencies (MHz)
Time Altitude Azimuth
SO-50 02 Jul 01:35:33 01:37:42 13° 39° (NE) 01:40:02 436.795
NANOSAT C BR1 02 Jul 01:44:08 01:46:40 15° 293° (WNW) 01:49:03 145.865
DUCHIFAT 1 02 Jul 01:52:38 01:54:36 13° 293° (WNW) 01:56:22 145.980
POLYITAN 1 02 Jul 01:54:13 01:55:53 12° 294° (WNW) 01:57:21 437.675
TISAT 1 02 Jul 01:54:15 01:57:47 25° 265° (W) 02:01:16 437.305
Cosmos 2491 02 Jul 02:20:17 02:27:32 29° 69° (ENE) 02:34:57 435.465 / 435.565
PCSat 02 Jul 02:21:22 02:26:48 76° 61° (ENE) 02:32:13 145.827
RS-15 02 Jul 02:28:58 02:38:45 43° 109° (ESE) 02:48:58 29.354- 29.394
BEESAT 02 Jul 02:34:22 02:39:06 66° 258° (WSW) 02:43:53 436.000
SWISSCUBE 02 Jul 02:49:50 02:54:20 41° 262° (W) 02:58:52 437.505
Gurwin Techsat 1B 02 Jul 02:53:11 02:57:19 23° 93° (E) 03:01:34 435.225
ITUPSAT 1 02 Jul 02:53:42 02:58:14 42° 262° (W) 03:02:47 437.325
YUBILEINY 02 Jul 02:55:08 03:00:48 21° 82° (E) 03:06:54 435.215
KKS-1 02 Jul 02:57:55 03:01:57 35° 72° (ENE) 03:06:02 437.445
Oscar 19 02 Jul 03:09:53 03:14:59 67° 286° (WNW) 03:20:04 437.125/150
SO-50 02 Jul 03:14:07 03:19:06 83° 59° (ENE) 03:23:58 436.795
ITAMSAT 1 02 Jul 03:15:22 03:20:09 36° 97° (E) 03:24:56 435.822/435.867
JAS-2 02 Jul 03:32:38 03:37:07 19° 91° (E) 03:42:14 435.910
AIST 1 02 Jul 03:47:47 03:52:10 72° 82° (E) 03:56:28
STARS 02 Jul 03:56:34 04:00:58 83° 257° (WSW) 04:05:23 437.465
AO-7 02 Jul 03:59:56 04:05:21 19° 90° (E) 04:11:12 29.400- 29.500
PCSat 02 Jul 04:07:18 04:09:39 12° 256° (WSW) 04:11:39 145.827
Cosmos 2491 02 Jul 04:16:25 04:24:56 57° 269° (W) 04:33:19 435.465 / 435.565
MOZHAYETS 4 02 Jul 04:31:38 04:35:44 34° 72° (ENE) 04:39:54
Gurwin Techsat 1B 02 Jul 04:32:30 04:37:28 40° 289° (WNW) 04:42:21 435.225
KKS-1 02 Jul 04:35:29 04:38:43 19° 267° (W) 04:41:49 437.445
RS-15 02 Jul 04:40:20 04:50:57 53° 310° (NW) 05:01:52 29.354- 29.394
YUBILEINY 02 Jul 04:48:08 04:56:49 74° 279° (W) 05:05:32 435.215
ITAMSAT 1 02 Jul 04:55:12 04:59:30 26° 292° (WNW) 05:03:39 435.822/435.867
SO-50 02 Jul 04:58:16 04:59:02 10° 253° (WSW) 04:59:28 436.795
Cosmos 2504 02 Jul 05:10:32 05:12:46 12° 81° (E) 05:15:34 435.465 / 435.565
JAS-2 02 Jul 05:16:05 05:22:36 70° 286° (WNW) 05:29:53 435.910
HORYU 2 02 Jul 05:27:32 05:31:58 66° 285° (WNW) 05:36:24 437.375
AO-7 02 Jul 05:50:44 05:59:07 80° 289° (WNW) 06:07:27 29.400- 29.500
MOZHAYETS 4 02 Jul 06:09:38 06:13:04 20° 267° (W) 06:16:24
PRISM 02 Jul 06:17:44 06:18:30 11° 65° (ENE) 06:19:31 437.425
STRAND 1 02 Jul 06:19:40 06:22:41 16° 65° (ENE) 06:25:54 437.568
CUBESAT XI-V 02 Jul 06:27:19 06:31:50 48° 73° (ENE) 06:36:23 437.345
YUBILEINY 02 Jul 06:51:36 06:55:34 13° 302° (WNW) 06:58:52 435.215
Cosmos 2504 02 Jul 06:57:59 07:05:17 90° 100° (E) 07:12:29 435.465 / 435.565
RS-15 02 Jul 06:59:28 07:06:59 19° 341° (NNW) 07:14:25 29.354- 29.394
JAS-2 02 Jul 07:04:57 07:06:58 11° 299° (WNW) 07:08:32 435.910
CUTE-I 02 Jul 07:10:08 07:15:08 39° 97° (E) 07:20:08 437.470
O/OREOS (USA 219) 02 Jul 07:29:51 07:32:24 16° 101° (E) 07:35:08 437.305
BEESAT 3 02 Jul 07:30:09 07:32:48 17° 111° (ESE) 07:35:36 437.485
BEESAT 2 02 Jul 07:38:42 07:41:18 17° 111° (ESE) 07:44:04 435.950
Cubesat XI-IV 02 Jul 07:43:15 07:48:39 83° 103° (ESE) 07:54:01 437.490
DANDE 02 Jul 07:45:26 07:50:01 18° 91° (E) 07:54:24 436.750
AO-7 02 Jul 07:45:42 07:50:49 17° 307° (NW) 07:55:30 29.400- 29.500
PRISM 02 Jul 07:49:20 07:53:27 62° 259° (W) 07:57:37 437.425
STRAND 1 02 Jul 07:56:23 08:01:28 58° 260° (W) 08:06:33 437.568
CUBESAT XI-V 02 Jul 08:06:45 08:09:35 15° 270° (W) 08:12:13 437.345
VERMONT LUNAR 02 Jul 08:08:42 08:10:47 17° 147° (SSE) 08:12:56 437.305
AUBIESAT-1 02 Jul 08:33:32 08:36:30 33° 68° (ENE) 08:39:36 437.475
AIST 2 02 Jul 08:39:46 08:42:47 20° 112° (ESE) 08:45:56 435.215
CUSAT 1 02 Jul 08:39:58 08:46:59 67° 98° (E) 08:52:25 437.405
CUTE-I 02 Jul 08:50:41 08:55:01 25° 293° (WNW) 08:59:12 437.470
Cosmos 2504 02 Jul 08:56:23 08:59:54 13° 297° (WNW) 09:02:54 435.465 / 435.565
HO-68 02 Jul 08:57:16 09:02:47 24° 93° (E) 09:08:31 435.675
M-CUBED/EXP-1 PRIME 02 Jul 09:05:04 09:08:20 66° 254° (WSW) 09:11:40 437.505
ISS 02 Jul 09:05:33 09:08:39 44° 136° (SE) 09:11:46 145.825
BEESAT 3 02 Jul 09:06:43 09:10:30 37° 306° (NW) 09:14:20 437.485
O/OREOS (USA 219) 02 Jul 09:07:15 09:11:29 42° 295° (WNW) 09:15:45 437.305
BEESAT 2 02 Jul 09:15:14 09:19:06 38° 306° (NW) 09:22:59 435.950
GOMX 1 02 Jul 09:16:47 09:20:49 44° 98° (E) 09:24:48 467.674
RS-15 02 Jul 09:18:24 09:25:35 18° 17° (NNE) 09:33:16 29.354- 29.394
SEEDS 02 Jul 09:22:34 09:25:54 23° 94° (E) 09:29:19 437.485
GONETS M04 02 Jul 09:24:18 09:32:26 45° 89° (E) 09:40:39
DANDE 02 Jul 09:25:19 09:33:05 72° 279° (W) 09:39:10 436.750
Cubesat XI-IV 02 Jul 09:25:51 09:28:08 12° 298° (WNW) 09:30:06 437.490
PHONESAT 2.4 02 Jul 09:27:11 09:29:08 15° 145° (SE) 09:31:11 2401.200-2431.200
BRITE-PL 02 Jul 09:28:24 09:32:45 73° 285° (WNW) 09:36:54 437.365/2234.400
AAUSAT CUBESAT 2 02 Jul 09:40:02 09:43:25 24° 94° (E) 09:46:52 437.432
CINEMA 3 02 Jul 09:40:27 09:43:36 21° 94° (E) 09:46:53 145.822/145.860
VERMONT LUNAR 02 Jul 09:44:19 09:47:26 84° 162° (SSE) 09:50:35 437.305
COMPASS 1 02 Jul 10:03:21 10:07:30 54° 99° (E) 10:11:39 437.405
CUTE 1.7 + AOD 2 02 Jul 10:05:10 10:09:28 88° 284° (WNW) 10:13:45 437.475
UWE-3 02 Jul 10:06:05 10:08:30 15° 92° (E) 10:11:07 435.000/436.395/437.385
CANX-2 02 Jul 10:08:09 10:12:26 73° 284° (WNW) 10:16:42 2200.000
AUBIESAT-1 02 Jul 10:10:53 10:11:33 10° 265° (W) 10:12:01 437.475
ANTELSAT 02 Jul 10:11:14 10:14:08 18° 69° (ENE) 10:17:09 437.575/2403.000
DOVE 4 02 Jul 10:13:01 10:17:08 64° 284° (WNW) 10:21:14 437.250
DELFI C3 02 Jul 10:13:29 10:16:04 17° 92° (E) 10:18:47 145.870
AIST 2 02 Jul 10:17:11 10:21:08 36° 306° (NW) 10:25:06 435.215
TIGRISAT 02 Jul 10:24:08 10:27:35 24° 71° (ENE) 10:31:06 435.000
CUSAT 1 02 Jul 10:25:31 10:29:43 17° 288° (WNW) 10:33:06 437.405
ISS 02 Jul 10:42:38 10:45:12 21° 332° (NNW) 10:47:43 145.825
QB50P1 02 Jul 10:43:45 10:46:28 17° 68° (ENE) 10:49:21 145.935-145.965
HO-68 02 Jul 10:43:57 10:50:57 58° 290° (WNW) 10:57:54 435.675
CUBEBUG 2 02 Jul 10:44:48 10:48:57 57° 100° (E) 10:53:09 437.445
DX 1 02 Jul 10:46:57 10:48:07 11° 90° (E) 10:49:35 434.975-435.025
GOMX 1 02 Jul 10:56:30 10:58:37 13° 294° (WNW) 11:00:32 467.674
ZACube-1 02 Jul 10:57:57 11:02:02 47° 99° (E) 11:06:11 437.345
SEEDS 02 Jul 10:58:04 11:01:41 27° 289° (WNW) 11:05:14 437.485
NANOSAT C BR1 02 Jul 10:58:12 11:01:36 25° 70° (ENE) 11:05:06 145.865
UNISAT 6 02 Jul 11:01:51 11:06:09 70° 76° (ENE) 11:10:25 437.425
PHONESAT 2.4 02 Jul 11:03:22 11:06:47 69° 159° (SSE) 11:10:14 2401.200-2431.200
DUCHIFAT 1 02 Jul 11:05:46 11:09:24 29° 71° (ENE) 11:13:06 145.980
POLYITAN 1 02 Jul 11:07:31 11:11:17 32° 72° (ENE) 11:15:06 437.675
UKube-1 02 Jul 11:10:00 11:13:06 20° 94° (E) 11:16:19 .
Oscar 11 02 Jul 11:12:18 11:16:37 64° 284° (WNW) 11:20:55 145.826/435.025
AISAT 02 Jul 11:13:37 11:15:31 13° 90° (E) 11:17:38 437.250
DANDE 02 Jul 11:15:28 11:16:52 10° 294° (WNW) 11:17:41 436.750
AAUSAT CUBESAT 2 02 Jul 11:15:29 11:18:58 25° 289° (WNW) 11:22:22 437.432
CINEMA 3 02 Jul 11:17:18 11:20:50 27° 289° (WNW) 11:24:20 145.822/145.860
Cosmos 2499 02 Jul 11:17:48 11:24:27 46° 91° (E) 11:31:09 435.465 / 435.565
GONETS M04 02 Jul 11:21:25 11:29:27 37° 288° (WNW) 11:37:18
VERMONT LUNAR 02 Jul 11:21:28 11:24:31 47° 359° (N) 11:27:36 437.305
RS-15 02 Jul 11:31:01 11:42:06 48° 47° (NE) 11:53:44 29.354- 29.394
BUGSAT 1 02 Jul 11:33:16 11:37:13 39° 73° (ENE) 11:41:11 437.445
FUNcube-1 02 Jul 11:35:11 11:39:21 62° 284° (WNW) 11:43:33 145.935
ESTCUBE 1 02 Jul 11:36:16 11:38:49 15° 91° (E) 11:41:34 437.505/2401.250
HUMSAT D 02 Jul 11:36:55 11:41:00 56° 100° (E) 11:45:08 437.325/437.525
QB50P2 02 Jul 11:37:05 11:41:19 74° 77° (ENE) 11:45:35 145.880/145.840
POPSAT HIP 1 02 Jul 11:38:26 11:42:41 74° 77° (ENE) 11:46:56 437.405
CUBEBUG 1 02 Jul 11:39:17 11:41:10 13° 90° (E) 11:43:17 437.445
COMPASS 1 02 Jul 11:41:01 11:42:46 12° 293° (WNW) 11:44:18 437.405
UWE-3 02 Jul 11:41:18 11:45:14 38° 287° (WNW) 11:49:11 435.000/436.395/437.385
ANTELSAT 02 Jul 11:46:46 11:50:44 34° 263° (W) 11:54:37 437.575/2403.000
DELFI C3 02 Jul 11:47:35 11:51:16 33° 288° (WNW) 11:54:55 145.870
TIGRISAT 02 Jul 12:00:41 12:04:17 25° 265° (W) 12:07:48 435.000
VELOX 1 02 Jul 12:01:52 12:06:06 45° 99° (E) 12:10:19 145.980
50 SAT 02 Jul 12:07:18 12:11:11 65° 100° (E) 12:15:04 437.505
QB50P1 02 Jul 12:18:08 12:22:06 36° 262° (W) 12:26:01 145.935-145.965
DX 1 02 Jul 12:20:32 12:24:48 56° 286° (WNW) 12:29:02 434.975-435.025
CUBEBUG 2 02 Jul 12:23:50 12:25:15 11° 293° (WNW) 12:26:27 437.445
NANOSAT C BR1 02 Jul 12:33:50 12:37:23 25° 265° (W) 12:40:51 145.865
ZACube-1 02 Jul 12:35:55 12:38:03 13° 292° (WNW) 12:40:01 437.345
PHONESAT 2.4 02 Jul 12:41:31 12:44:55 52° 355° (N) 12:48:19 2401.200-2431.200
DUCHIFAT 1 02 Jul 12:41:59 12:45:15 21° 266° (W) 12:48:24 145.980
POLYITAN 1 02 Jul 12:44:12 12:47:17 19° 267° (W) 12:50:14 437.675
UKube-1 02 Jul 12:45:27 12:49:19 32° 289° (WNW) 12:53:08 .
Oscar 19 02 Jul 12:47:52 12:50:57 17° 65° (ENE) 12:54:15 437.125/150
AISAT 02 Jul 12:48:10 12:52:27 50° 287° (WNW) 12:56:41 437.250
SPROUT 02 Jul 12:49:18 12:52:38 22° 94° (E) 12:56:03 437.525
VERMONT LUNAR 02 Jul 12:58:29 13:01:39 74° 14° (NNE) 13:04:50 437.305
BUGSAT 1 02 Jul 13:10:18 13:12:53 15° 268° (W) 13:15:18 437.445
ESTCUBE 1 02 Jul 13:11:38 13:15:59 45° 287° (WNW) 13:20:17 437.505/2401.250
Cosmos 2499 02 Jul 13:11:58 13:17:53 27° 290° (WNW) 13:23:39 435.465 / 435.565
CUBEBUG 1 02 Jul 13:13:40 13:17:53 48° 287° (WNW) 13:22:03 437.445
HUMSAT D 02 Jul 13:14:57 13:16:20 11° 293° (WNW) 13:17:29 437.325/437.525
VELOX 1 02 Jul 13:39:38 13:42:19 15° 293° (WNW) 13:44:49 145.980
TISAT 1 02 Jul 13:39:44 13:43:52 57° 100° (E) 13:47:57 437.305
RS-15 02 Jul 13:43:32 13:54:53 54° 248° (WSW) 14:06:27 29.354- 29.394
Gurwin Techsat 1B 02 Jul 14:12:20 14:16:54 31° 69° (ENE) 14:21:35 435.225
PHONESAT 2.4 02 Jul 14:19:43 14:23:11 67° 12° (NNE) 14:26:39 2401.200-2431.200
Oscar 19 02 Jul 14:24:51 14:29:54 56° 260° (W) 14:34:57 437.125/150
SPROUT 02 Jul 14:25:04 14:28:43 27° 289° (WNW) 14:32:17 437.525
ITAMSAT 1 02 Jul 14:31:22 14:36:17 46° 72° (ENE) 14:41:18 435.822/435.867
VERMONT LUNAR 02 Jul 14:35:43 14:38:26 26° 209° (SSW) 14:41:10 437.305
BEESAT 02 Jul 14:36:43 14:41:07 36° 97° (E) 14:45:33 436.000
SWISSCUBE 02 Jul 14:51:42 14:56:28 58° 101° (E) 15:01:12 437.505
ITUPSAT 1 02 Jul 14:55:54 15:00:39 58° 101° (E) 15:05:23 437.325
AO-7 02 Jul 14:57:05 15:03:22 26° 58° (ENE) 15:09:57 29.400- 29.500
YUBILEINY 02 Jul 15:00:43 15:09:09 51° 76° (ENE) 15:17:40 435.215
TISAT 1 02 Jul 15:17:45 15:19:11 11° 294° (WNW) 15:20:23 437.305
Cosmos 2491 02 Jul 15:19:02 15:26:41 36° 87° (E) 15:34:31 435.465 / 435.565
PCSat 02 Jul 15:21:36 15:23:25 12° 104° (ESE) 15:25:36 145.827
JAS-2 02 Jul 15:27:53 15:32:35 37° 70° (ENE) 15:37:28 435.910
ISS 02 Jul 15:34:46 15:37:37 28° 31° (NNE) 15:40:28 145.825
STARS 02 Jul 15:48:59 15:52:12 20° 94° (E) 15:55:31 437.465
Gurwin Techsat 1B 02 Jul 15:52:13 15:56:52 30° 265° (W) 16:01:29 435.225
PHONESAT 2.4 02 Jul 15:57:53 16:01:07 35° 208° (SSW) 16:04:20 2401.200-2431.200
ITAMSAT 1 02 Jul 16:12:16 16:16:04 20° 268° (W) 16:19:44 435.822/435.867
AIST 1 02 Jul 16:15:00 16:19:11 46° 93° (E) 16:23:26
BEESAT 02 Jul 16:15:03 16:18:45 22° 292° (WNW) 16:22:20 436.000
HORYU 2 02 Jul 16:23:38 16:28:03 89° 65° (ENE) 16:32:30 437.375
KKS-1 02 Jul 16:26:52 16:31:19 85° 284° (WNW) 16:35:44 437.445
SWISSCUBE 02 Jul 16:31:12 16:33:53 14° 295° (WNW) 16:36:19 437.505
ITUPSAT 1 02 Jul 16:35:23 16:38:06 15° 295° (WNW) 16:40:37 437.325
AO-7 02 Jul 16:47:12 16:55:32 72° 256° (WSW) 17:03:54 29.400- 29.500
Cosmos 2504 02 Jul 16:52:00 16:58:23 28° 71° (ENE) 17:05:20 435.465 / 435.565
YUBILEINY 02 Jul 16:58:09 17:05:41 32° 274° (W) 17:12:59 435.215
PCSat 02 Jul 17:00:51 17:06:16 78° 299° (WNW) 17:11:43 145.827
ISS 02 Jul 17:11:09 17:13:59 27° 227° (SW) 17:16:46 145.825
JAS-2 02 Jul 17:13:58 17:17:59 22° 268° (W) 17:21:53 435.910
Cosmos 2491 02 Jul 17:14:58 17:23:23 46° 285° (WNW) 17:31:45 435.465 / 435.565
STARS 02 Jul 17:24:50 17:28:43 31° 289° (WNW) 17:32:33 437.465
SO-50 02 Jul 17:26:39 17:31:01 42° 115° (ESE) 17:35:36 436.795
Cubesat XI-IV 02 Jul 17:26:39 17:29:11 14° 63° (ENE) 17:31:59 437.490
BEESAT 3 02 Jul 17:26:39 17:30:42 69° 58° (ENE) 17:34:40 437.485
BEESAT 2 02 Jul 17:35:47 17:39:52 68° 58° (ENE) 17:43:51 435.950
O/OREOS (USA 219) 02 Jul 17:40:09 17:43:45 23° 60° (ENE) 17:47:26 437.305
AIST 1 02 Jul 17:54:54 17:57:12 13° 290° (WNW) 17:59:17
MOZHAYETS 4 02 Jul 18:05:06 18:09:46 75° 283° (WNW) 18:14:24
CUBESAT XI-V 02 Jul 18:27:33 18:29:54 14° 90° (E) 18:32:30 437.345
CUTE-I 02 Jul 18:29:59 18:35:10 54° 73° (ENE) 18:40:25 437.470
AIST 2 02 Jul 18:40:17 18:44:30 82° 59° (ENE) 18:48:38 435.215
Cosmos 2504 02 Jul 18:44:39 18:52:07 53° 268° (W) 19:00:04 435.465 / 435.565
AO-7 02 Jul 18:47:32 18:49:58 11° 275° (W) 18:51:34 29.400- 29.500
PCSat 02 Jul 18:48:18 18:50:40 12° 318° (NW) 18:52:48 145.827
JUGNU 02 Jul 19:00:40 19:03:20 13° 177° (S) 19:06:01 437.505
BRITE-PL 02 Jul 19:01:22 19:03:26 13° 65° (ENE) 19:05:45 437.365/2234.400
Cubesat XI-IV 02 Jul 19:03:22 19:08:43 74° 258° (WSW) 19:14:07 437.490
SO-50 02 Jul 19:07:53 19:11:46 24° 313° (NW) 19:15:39 436.795
O/OREOS (USA 219) 02 Jul 19:19:12 19:23:13 30° 255° (WSW) 19:27:08 437.305
CUSAT 1 02 Jul 19:21:48 19:23:37 17° 73° (ENE) 19:25:27 437.405
HO-68 02 Jul 19:26:03 19:29:54 16° 58° (ENE) 19:34:07 435.675
PRISM 02 Jul 19:34:14 19:37:21 20° 94° (E) 19:40:33 437.425
GONETS M04 02 Jul 19:37:53 19:43:32 19° 64° (ENE) 19:49:37
DOVE 4 02 Jul 19:43:29 19:43:36 10° 66° (ENE) 19:44:01 437.250
SRMSAT 02 Jul 19:49:54 19:51:30 11° 171° (S) 19:53:10 437.500
CUBESAT XI-V 02 Jul 20:03:09 20:07:44 51° 286° (WNW) 20:12:13 437.345
STRAND 1 02 Jul 20:08:50 20:13:53 56° 100° (E) 20:18:55 437.568
DANDE 02 Jul 20:11:01 20:13:53 67° 81° (E) 20:16:26 436.750
CUTE-I 02 Jul 20:12:04 20:15:39 17° 269° (W) 20:19:00 437.470
SEEDS 02 Jul 20:14:17 20:16:09 13° 67° (ENE) 20:18:13 437.485
GOMX 1 02 Jul 20:22:10 20:27:07 45° 74° (ENE) 20:31:50 467.674
AAUSAT CUBESAT 2 02 Jul 20:30:26 20:32:20 13° 67° (ENE) 20:34:25 437.432
BRITE-PL 02 Jul 20:35:51 20:41:26 83° 256° (WSW) 20:46:45 437.365/2234.400
CINEMA 3 02 Jul 20:40:56 20:43:55 18° 69° (ENE) 20:46:58 145.822/145.860
JUGNU 02 Jul 20:49:14 20:51:31 12° 187° (S) 20:53:45 437.505
M-CUBED/EXP-1 PRIME 02 Jul 20:49:40 20:50:03 10° 95° (E) 20:50:45 437.505
COMPASS 1 02 Jul 20:52:59 20:56:31 28° 72° (ENE) 21:00:08 437.405
CUTE 1.7 + AOD 2 02 Jul 20:56:01 21:00:04 49° 74° (ENE) 21:04:10 437.475
CANX-2 02 Jul 20:58:59 21:03:07 61° 75° (ENE) 21:07:17 2200.000
UWE-3 02 Jul 21:03:37 21:04:21 11° 66° (ENE) 21:05:21 435.000/436.395/437.385
PRISM 02 Jul 21:09:09 21:12:49 29° 289° (WNW) 21:16:24 437.425
HO-68 02 Jul 21:09:37 21:16:47 88° 75° (ENE) 21:23:59 435.675
Cosmos 2499 02 Jul 21:11:31 21:15:20 15° 63° (ENE) 21:19:51 435.465 / 435.565
DOVE 4 02 Jul 21:15:53 21:20:53 83° 258° (WSW) 21:25:37 437.250
GONETS M04 02 Jul 21:32:53 21:41:36 81° 265° (W) 21:50:16
SRMSAT 02 Jul 21:37:07 21:39:51 13° 181° (S) 21:42:34 437.500
CUBEBUG 2 02 Jul 21:41:22 21:45:20 37° 73° (ENE) 21:49:16 437.445
SEEDS 02 Jul 21:47:32 21:51:35 47° 262° (W) 21:55:38 437.485
AUBIESAT-1 02 Jul 21:48:42 21:52:45 44° 104° (ESE) 21:57:05 437.475
STRAND 1 02 Jul 21:49:22 21:52:41 17° 295° (WNW) 21:55:47 437.568
ZACube-1 02 Jul 21:52:27 21:56:06 29° 72° (ENE) 21:59:46 437.345
GOMX 1 02 Jul 22:01:36 22:05:24 19° 267° (W) 22:08:55 467.674
AAUSAT CUBESAT 2 02 Jul 22:03:36 22:07:34 46° 261° (W) 22:11:34 437.432
UKube-1 02 Jul 22:04:01 22:06:16 14° 66° (ENE) 22:08:42 .
Oscar 11 02 Jul 22:04:51 22:09:08 76° 77° (ENE) 22:13:27 145.826/435.025
AISAT 02 Jul 22:11:23 22:11:58 10° 64° (ENE) 22:12:50 437.250
CINEMA 3 02 Jul 22:16:36 22:20:55 38° 262° (W) 22:25:02 145.822/145.860
M-CUBED/EXP-1 PRIME 02 Jul 22:21:00 22:25:11 67° 289° (WNW) 22:29:39 437.505
HUMSAT D 02 Jul 22:27:06 22:30:41 30° 72° (ENE) 22:34:18 437.325/437.525
FUNcube-1 02 Jul 22:28:50 22:33:04 79° 76° (ENE) 22:37:15 145.935
COMPASS 1 02 Jul 22:29:05 22:32:14 20° 267° (W) 22:35:17 437.405
DELFI C3 02 Jul 22:32:16 22:36:15 73° 258° (WSW) 22:40:16 145.870
CUTE 1.7 + AOD 2 02 Jul 22:34:39 22:36:21 12° 271° (W) 22:37:47 437.475
ESTCUBE 1 02 Jul 22:35:21 22:37:02 12° 65° (ENE) 22:38:56 437.505/2401.250
UWE-3 02 Jul 22:36:13 22:40:28 62° 260° (W) 22:44:39 435.000/436.395/437.385
50 SAT 02 Jul 22:50:00 22:53:11 26° 72° (ENE) 22:56:27 437.505
UNISAT 6 02 Jul 22:56:33 22:59:18 17° 92° (E) 23:02:15 437.425
VELOX 1 02 Jul 22:57:39 23:01:36 32° 71° (ENE) 23:05:37 145.980
HO-68 02 Jul 23:01:42 23:05:32 14° 272° (W) 23:08:51 435.675
Cosmos 2499 02 Jul 23:01:50 23:09:44 85° 84° (E) 23:18:13 435.465 / 435.565
DX 1 02 Jul 23:13:48 23:18:12 84° 259° (W) 23:22:36 434.975-435.025
CUBEBUG 2 02 Jul 23:19:23 23:22:12 16° 268° (W) 23:24:48 437.445
AUBIESAT-1 02 Jul 23:24:28 23:27:15 17° 296° (WNW) 23:29:59 437.475
QB50P2 02 Jul 23:25:57 23:28:00 14° 91° (E) 23:30:16 145.880/145.840
POPSAT HIP 1 02 Jul 23:27:12 23:29:12 14° 91° (E) 23:31:26 437.405
ZACube-1 02 Jul 23:29:20 23:32:31 20° 266° (W) 23:35:33 437.345
GONETS M04 02 Jul 23:33:16 23:37:16 13° 281° (W) 23:40:33
UKube-1 02 Jul 23:37:50 23:42:02 48° 260° (W) 23:46:15 .
ANTELSAT 02 Jul 23:39:50 23:44:07 52° 100° (E) 23:48:29 437.575/2403.000
SPROUT 02 Jul 23:42:41 23:45:02 15° 67° (ENE) 23:47:35 437.525
AISAT 02 Jul 23:43:33 23:48:02 73° 259° (W) 23:52:31 437.250
TIGRISAT 02 Jul 23:52:59 23:57:20 72° 101° (E) 00:01:47 435.000
HUMSAT D 03 Jul 00:03:33 00:06:29 18° 267° (W) 00:09:19 437.325/437.525
QB50P1 03 Jul 00:04:55 00:08:50 38° 98° (E) 00:12:47 145.935-145.965
CUBEBUG 1 03 Jul 00:07:20 00:11:47 77° 259° (W) 00:16:14 437.445
ESTCUBE 1 03 Jul 00:08:56 00:13:25 63° 260° (W) 00:17:56 437.505/2401.250
NANOSAT C BR1 03 Jul 00:19:42 00:23:51 58° 100° (E) 00:27:59 145.865
50 SAT 03 Jul 00:25:06 00:27:50 18° 266° (W) 00:30:29 437.505
DUCHIFAT 1 03 Jul 00:27:16 00:31:27 71° 101° (E) 00:35:37 145.980
POLYITAN 1 03 Jul 00:29:57 00:34:11 81° 102° (ESE) 00:38:23 437.675
TISAT 1 03 Jul 00:30:02 00:33:49 33° 72° (ENE) 00:37:39 437.305
UNISAT 6 03 Jul 00:32:11 00:36:16 39° 287° (WNW) 00:40:24 437.425
VELOX 1 03 Jul 00:34:48 00:38:14 21° 266° (W) 00:41:32 145.980
BUGSAT 1 03 Jul 00:52:27 00:56:32 89° 267° (W) 01:00:33 437.445
Cosmos 2499 03 Jul 00:57:22 01:02:11 17° 277° (W) 01:06:39 435.465 / 435.565
QB50P2 03 Jul 01:00:09 01:04:10 43° 287° (WNW) 01:08:09 145.880/145.840
POPSAT HIP 1 03 Jul 01:01:21 01:05:21 43° 287° (WNW) 01:09:19 437.405
SPROUT 03 Jul 01:16:39 01:20:48 44° 261° (W) 01:24:56 437.525
ANTELSAT 03 Jul 01:18:18 01:20:32 13° 293° (WNW) 01:22:35 437.575/2403.000
